| time (UTC) | temp F | wind direction | speed MPH | gust MPH | rain 1hr in | rain 24hr in | rain mn in | humidity % | barometer mb |
| 20260506154516 | 57 | 203 | 7.0 | 14.0 | 0.00 | 0.07 | 0.00 | 62 | 1010.7 |
| 20260506153515 | 57 | 225 | 5.0 | 15.0 | 0.00 | 0.07 | 0.00 | 62 | 1010.6 |
| 20260506152517 | 57 | 225 | 8.0 | 13.0 | 0.00 | 0.07 | 0.00 | 60 | 1010.6 |
| 20260506151517 | 58 | 225 | 7.0 | 13.0 | 0.00 | 0.07 | 0.00 | 60 | 1010.6 |
| 20260506150518 | 57 | 203 | 7.0 | 14.0 | 0.00 | 0.07 | 0.00 | 59 | 1010.5 |
| 20260506145558 | 58 | 203 | 5.0 | 12.0 | 0.00 | 0.07 | 0.00 | 59 | 1010.7 |
| 20260506144517 | 59 | 180 | 4.0 | 9.0 | 0.00 | 0.07 | 0.00 | 59 | 1010.8 |
| 20260506143539 | 59 | 203 | 6.0 | 10.0 | 0.00 | 0.07 | 0.00 | 61 | 1010.9 |
| 20260506142517 | 57 | 180 | 5.0 | 10.0 | 0.00 | 0.07 | 0.00 | 63 | 1010.7 |
| 20260506141518 | 58 | 203 | 8.0 | 14.0 | 0.00 | 0.07 | 0.00 | 64 | 1010.9 |
| 20260506140518 | 58 | 203 | 9.0 | 14.0 | 0.00 | 0.07 | 0.00 | 66 | 1011.2 |
| 20260506135517 | 57 | 203 | 9.0 | 16.0 | 0.00 | 0.07 | 0.00 | 69 | 1011.2 |
| 20260506134538 | 57 | 225 | 8.0 | 13.0 | 0.00 | 0.07 | 0.00 | 69 | 1011.5 |
| 20260506133517 | 56 | 203 | 7.0 | 18.0 | 0.00 | 0.07 | 0.00 | 70 | 1011.5 |
| 20260506132517 | 57 | 225 | 5.0 | 11.0 | 0.00 | 0.07 | 0.00 | 74 | 1011.9 |
| 20260506131518 | 55 | 180 | 4.0 | 11.0 | 0.00 | 0.07 | 0.00 | 73 | 1011.5 |
| 20260506130517 | 54 | 225 | 6.0 | 13.0 | 0.00 | 0.07 | 0.00 | 75 | 1011.7 |
| 20260506125517 | 53 | 180 | 3.0 | 6.0 | 0.00 | 0.07 | 0.00 | 74 | 1011.6 |
| 20260506124517 | 53 | 113 | 3.0 | 6.0 | 0.00 | 0.07 | 0.00 | 74 | 1011.7 |
| 20260506123517 | 54 | 158 | 1.0 | 5.0 | 0.00 | 0.07 | 0.00 | 75 | 1011.7 |
| 20260506122517 | 53 | 113 | 2.0 | 6.0 | 0.00 | 0.07 | 0.00 | 78 | 1011.8 |
| 20260506121517 | 52 | 180 | 4.0 | 8.0 | 0.00 | 0.07 | 0.00 | 78 | 1011.5 |
| 20260506120517 | 52 | 158 | 4.0 | 7.0 | 0.00 | 0.07 | 0.00 | 78 | 1011.6 |
| 20260506115537 | 52 | 135 | 3.0 | 8.0 | 0.00 | 0.07 | 0.00 | 79 | 1011.7 |
| 20260506114517 | 53 | 180 | 3.0 | 8.0 | 0.00 | 0.07 | 0.00 | 80 | 1012.0 |
| 20260506113537 | 51 | 180 | 5.0 | 10.0 | 0.00 | 0.07 | 0.00 | 80 | 1011.8 |
| 20260506112517 | 52 | 203 | 3.0 | 8.0 | 0.00 | 0.07 | 0.00 | 82 | 1012.2 |
| 20260506111518 | 50 | 180 | 6.0 | 9.0 | 0.00 | 0.07 | 0.00 | 83 | 1012.0 |
| 20260506110537 | 51 | 158 | 5.0 | 9.0 | 0.00 | 0.07 | 0.00 | 86 | 1012.1 |
| 20260506105517 | 51 | 158 | 3.0 | 9.0 | 0.00 | 0.07 | 0.00 | 88 | 1012.3 |
| 20260506104517 | 50 | 180 | 4.0 | 8.0 | 0.00 | 0.07 | 0.00 | 91 | 1012.3 |
| 20260506103538 | 49 | 203 | 5.0 | 8.0 | 0.00 | 0.07 | 0.00 | 92 | 1012.4 |
| 20260506102517 | 48 | 180 | 4.0 | 8.0 | 0.00 | 0.07 | 0.00 | 92 | 1012.2 |
| 20260506101517 | 47 | 158 | 3.0 | 6.0 | 0.00 | 0.07 | 0.00 | 93 | 1012.1 |
| 20260506100517 | 46 | 180 | 5.0 | 7.0 | 0.00 | 0.07 | 0.00 | 93 | 1012.0 |
| 20260506095517 | 45 | 180 | 6.0 | 10.0 | 0.00 | 0.07 | 0.00 | 94 | 1012.1 |
| 20260506094517 | 45 | 180 | 4.0 | 9.0 | 0.00 | 0.07 | 0.00 | 94 | 1012.0 |
| 20260506093518 | 45 | 203 | 6.0 | 9.0 | 0.00 | 0.07 | 0.00 | 94 | 1011.8 |
| 20260506092517 | 45 | 180 | 5.0 | 8.0 | 0.00 | 0.07 | 0.00 | 94 | 1011.6 |
| 20260506091537 | 46 | 135 | 3.0 | 6.0 | 0.00 | 0.07 | 0.00 | 94 | 1011.6 |
| 20260506090517 | 46 | 113 | 4.0 | 8.0 | 0.00 | 0.07 | 0.00 | 94 | 1011.5 |
| 20260506085516 | 46 | 180 | 4.0 | 8.0 | 0.00 | 0.07 | 0.00 | 94 | 1011.5 |
| 20260506084517 | 46 | 180 | 3.0 | 6.0 | 0.00 | 0.07 | 0.00 | 94 | 1011.3 |
| 20260506083516 | 48 | 180 | 3.0 | 7.0 | 0.00 | 0.07 | 0.00 | 95 | 1011.5 |
| 20260506082517 | 46 | 248 | 2.0 | 6.0 | 0.00 | 0.07 | 0.00 | 95 | 1011.1 |
| 20260506081517 | 45 | 225 | 3.0 | 6.0 | 0.00 | 0.07 | 0.00 | 95 | 1011.1 |
| 20260506080517 | 44 | 180 | 2.0 | 5.0 | 0.00 | 0.07 | 0.00 | 95 | 1011.1 |
| 20260506073516 | 43 | 225 | 2.0 | 5.0 | 0.00 | 0.07 | 0.00 | 95 | 1011.1 |
| 20260506072537 | 43 | 203 | 2.0 | 5.0 | 0.00 | 0.07 | 0.00 | 95 | 1011.2 |
| 20260506071517 | 43 | 225 | 2.0 | 4.0 | 0.00 | 0.07 | 0.00 | 95 | 1011.1 |
| 20260506070516 | 43 | 0.0 | 1.0 | 0.00 | 0.07 | 0.00 | 95 | 1011.2 | |
| 20260506062517 | 41 | 68 | 1.0 | 2.0 | 0.00 | 0.07 | 0.00 | 95 | 1010.8 |
| 20260506061537 | 40 | 0.0 | 2.0 | 0.00 | 0.07 | 0.00 | 95 | 1010.7 | |
| 20260506060516 | 38 | 45 | 2.0 | 5.0 | 0.00 | 0.07 | 0.00 | 95 | 1010.2 |
| 20260506050536 | 38 | 0.0 | 1.0 | 0.00 | 0.07 | 0.00 | 95 | 1010.1 | |
| 20260506044516 | 38 | 338 | 2.0 | 4.0 | 0.00 | 0.08 | 0.00 | 95 | 1010.3 |
| 20260506043516 | 38 | 0 | 2.0 | 4.0 | 0.00 | 0.08 | 0.00 | 95 | 1010.3 |
| 20260506042516 | 38 | 248 | 1.0 | 5.0 | 0.00 | 0.08 | 0.00 | 95 | 1010.2 |
| 20260506041516 | 38 | 0.0 | 0.0 | 0.00 | 0.08 | 0.00 | 95 | 1010.1 | |
| 20260506040516 | 39 | 0.0 | 0.0 | 0.00 | 0.08 | 0.00 | 95 | 1010.2 | |
| 20260506035516 | 39 | 0.0 | 0.0 | 0.00 | 0.08 | 0.00 | 95 | 1010.5 | |
| 20260506034516 | 39 | 0.0 | 0.0 | 0.00 | 0.08 | 0.00 | 94 | 1010.5 | |
| 20260506033516 | 39 | 23 | 2.0 | 4.0 | 0.00 | 0.08 | 0.00 | 94 | 1010.4 |
| 20260506032517 | 39 | 0 | 1.0 | 4.0 | 0.00 | 0.08 | 0.00 | 95 | 1010.5 |
| 20260506031516 | 39 | 23 | 3.0 | 5.0 | 0.00 | 0.08 | 0.00 | 94 | 1010.7 |
| 20260506030516 | 39 | 0.0 | 1.0 | 0.00 | 0.08 | 0.00 | 94 | 1010.5 | |
| 20260506025516 | 39 | 23 | 2.0 | 4.0 | 0.00 | 0.08 | 0.00 | 94 | 1010.5 |
| 20260506024516 | 40 | 23 | 2.0 | 4.0 | 0.00 | 0.08 | 0.00 | 95 | 1010.5 |
| 20260506023516 | 39 | 23 | 1.0 | 5.0 | 0.00 | 0.08 | 0.00 | 95 | 1010.7 |
| 20260506022516 | 40 | 23 | 2.0 | 4.0 | 0.00 | 0.08 | 0.00 | 94 | 1010.8 |
| 20260506021516 | 40 | 23 | 2.0 | 4.0 | 0.00 | 0.08 | 0.00 | 94 | 1010.9 |
| 20260506020516 | 40 | 23 | 1.0 | 4.0 | 0.00 | 0.08 | 0.00 | 94 | 1011.1 |
| 20260506015516 | 40 | 0 | 2.0 | 4.0 | 0.00 | 0.08 | 0.00 | 94 | 1010.8 |
| 20260506014515 | 40 | 45 | 3.0 | 4.0 | 0.00 | 0.08 | 0.00 | 94 | 1011.1 |
| 20260506013516 | 41 | 23 | 2.0 | 5.0 | 0.00 | 0.08 | 0.00 | 94 | 1011.1 |
| 20260506012516 | 41 | 0.0 | 0.0 | 0.00 | 0.08 | 0.00 | 94 | 1011.2 | |
| 20260506011516 | 41 | 45 | 1.0 | 4.0 | 0.00 | 0.08 | 0.00 | 94 | 1011.1 |
| 20260506010536 | 41 | 23 | 3.0 | 7.0 | 0.00 | 0.08 | 0.00 | 94 | 1011.2 |
| 20260506005537 | 41 | 45 | 2.0 | 5.0 | 0.00 | 0.08 | 0.00 | 94 | 1011.3 |
| 20260506004515 | 41 | 0 | 1.0 | 4.0 | 0.00 | 0.08 | 0.00 | 94 | 1011.3 |
| 20260506003515 | 41 | 23 | 1.0 | 4.0 | 0.00 | 0.08 | 0.00 | 94 | 1011.3 |
| 20260506002536 | 41 | 0 | 1.0 | 2.0 | 0.00 | 0.08 | 0.00 | 94 | 1011.0 |
| 20260506001515 | 41 | 23 | 1.0 | 4.0 | 0.00 | 0.08 | 0.00 | 94 | 1011.1 |
| 20260506000515 | 41 | 0 | 1.0 | 4.0 | 0.00 | 0.08 | 0.00 | 94 | 1011.3 |
| 20260505235517 | 41 | 23 | 2.0 | 4.0 | 0.00 | 0.08 | 0.08 | 94 | 1011.3 |
| 20260505234516 | 42 | 0.0 | 2.0 | 0.00 | 0.08 | 0.08 | 94 | 1011.0 | |
| 20260505233516 | 42 | 0.0 | 1.0 | 0.00 | 0.08 | 0.08 | 94 | 1011.6 | |
| 20260505232516 | 42 | 315 | 1.0 | 2.0 | 0.00 | 0.08 | 0.08 | 94 | 1011.6 |
| 20260505231517 | 43 | 338 | 1.0 | 3.0 | 0.00 | 0.08 | 0.08 | 94 | 1011.5 |
| 20260505230537 | 42 | 23 | 1.0 | 4.0 | 0.00 | 0.08 | 0.08 | 94 | 1011.4 |
| 20260505225517 | 43 | 23 | 2.0 | 4.0 | 0.00 | 0.08 | 0.08 | 94 | 1011.4 |
| 20260505224517 | 43 | 0 | 1.0 | 4.0 | 0.00 | 0.08 | 0.08 | 94 | 1011.5 |
| 20260505223516 | 43 | 23 | 1.0 | 2.0 | 0.00 | 0.08 | 0.08 | 94 | 1011.6 |
| 20260505222537 | 43 | 0.0 | 1.0 | 0.00 | 0.08 | 0.08 | 94 | 1011.9 | |
| 20260505221517 | 43 | 0 | 2.0 | 5.0 | 0.00 | 0.08 | 0.08 | 94 | 1012.0 |
| 20260505220517 | 43 | 293 | 1.0 | 4.0 | 0.00 | 0.08 | 0.08 | 94 | 1011.9 |
| 20260505215516 | 44 | 23 | 1.0 | 2.0 | 0.00 | 0.08 | 0.08 | 94 | 1012.0 |
| 20260505214516 | 44 | 0.0 | 2.0 | 0.00 | 0.08 | 0.08 | 93 | 1012.1 | |
| 20260505213516 | 44 | 0 | 1.0 | 2.0 | 0.00 | 0.08 | 0.08 | 94 | 1012.1 |
| 20260505212517 | 44 | 23 | 3.0 | 4.0 | 0.00 | 0.08 | 0.08 | 93 | 1012.1 |
| 20260505211536 | 45 | 0.0 | 0.0 | 0.00 | 0.09 | 0.08 | 93 | 1012.1 | |
| 20260505210516 | 44 | 23 | 2.0 | 4.0 | 0.00 | 0.09 | 0.08 | 93 | 1011.8 |
| 20260505205516 | 45 | 45 | 1.0 | 2.0 | 0.00 | 0.11 | 0.08 | 93 | 1011.9 |
| 20260505204516 | 45 | 23 | 3.0 | 4.0 | 0.00 | 0.15 | 0.08 | 93 | 1011.8 |
| 20260505203516 | 45 | 0.0 | 0.0 | 0.00 | 0.21 | 0.08 | 93 | 1011.6 | |
| 20260505202516 | 45 | 0.0 | 0.0 | 0.00 | 0.22 | 0.08 | 93 | 1011.1 | |
| 20260505201516 | 45 | 0.0 | 0.0 | 0.00 | 0.23 | 0.08 | 93 | 1010.9 | |
| 20260505200516 | 46 | 0.0 | 0.0 | 0.00 | 0.23 | 0.08 | 92 | 1010.7 | |
| 20260505195516 | 46 | 0.0 | 0.0 | 0.00 | 0.23 | 0.08 | 92 | 1010.4 | |
| 20260505194516 | 47 | 0.0 | 0.0 | 0.00 | 0.23 | 0.08 | 92 | 1010.5 | |
| 20260505193516 | 47 | 0.0 | 0.0 | 0.00 | 0.23 | 0.08 | 92 | 1010.5 | |
| 20260505192516 | 47 | 0.0 | 0.0 | 0.00 | 0.23 | 0.08 | 92 | 1010.4 | |
| 20260505191516 | 47 | 0.0 | 0.0 | 0.00 | 0.23 | 0.08 | 91 | 1010.3 | |
| 20260505190516 | 48 | 0.0 | 0.0 | 0.00 | 0.23 | 0.08 | 91 | 1010.3 | |
| 20260505185516 | 48 | 0.0 | 0.0 | 0.00 | 0.23 | 0.08 | 91 | 1010.5 | |
| 20260505184515 | 48 | 0.0 | 0.0 | 0.00 | 0.23 | 0.08 | 90 | 1009.8 | |
| 20260505183516 | 47 | 0.0 | 0.0 | 0.01 | 0.23 | 0.08 | 90 | 1009.6 | |
| 20260505182515 | 48 | 0.0 | 0.0 | 0.04 | 0.23 | 0.08 | 89 | 1009.4 | |
| 20260505181515 | 48 | 0.0 | 0.0 | 0.06 | 0.23 | 0.08 | 89 | 1009.4 | |
| 20260505180536 | 48 | 0.0 | 0.0 | 0.07 | 0.23 | 0.08 | 88 | 1009.5 | |
| 20260505175515 | 49 | 180 | 1.0 | 4.0 | 0.07 | 0.23 | 0.08 | 87 | 1009.6 |
| 20260505174536 | 48 | 0.0 | 3.0 | 0.07 | 0.23 | 0.08 | 86 | 1009.6 | |
| 20260505173535 | 48 | 203 | 7.0 | 11.0 | 0.06 | 0.22 | 0.07 | 83 | 1009.5 |
| 20260505173039 | 49 | 68 | 3.0 | 6.0 | 0.05 | 0.20 | 0.06 | 78 | 1009.1 |